When you browse on this site, cookies collect data to enhance your experience and personalize the content and advertising you see.
Visit our Privacy Policy to learn more. By continuing to use the site, you agree to this use of cookies and data.
  • In Hungary
  • List of Countries
  • For 7 days
  • Water Temperature
  • Weather Map
  • News
  • Weather Widgets
  • user-avatar
    Login

    Hourly Weather Pimahovo

    Today, 23 August, Friday

    Time Temperature Precipitation Wind Pressure Humidity
    00:00 +13°C° 0 mm 1 mps 757 mmHg 89%
    01:00 +12°C° 0 mm 1 mps 757 mmHg 91%
    02:00 +12°C° 0 mm 1 mps 758 mmHg 93%
    03:00 +12°C° 0 mm 1 mps 757 mmHg 94%
    04:00 +12°C° 0 mm 1 mps 757 mmHg 94%
    05:00 +11°C° 0 mm 1 mps 757 mmHg 95%
    06:00 +13°C° 0 mm 1 mps 758 mmHg 88%
    07:00 +15°C° 0 mm 1 mps 758 mmHg 82%
    08:00 +18°C° 0 mm 1 mps 758 mmHg 74%
    09:00 +18°C° 0 mm 2 mps 758 mmHg 69%
    10:00 +19°C° 0 mm 2 mps 758 mmHg 64%
    11:00 +21°C° 0 mm 2 mps 758 mmHg 59%
    12:00 +21°C° 0 mm 2 mps 758 mmHg 56%
    13:00 +23°C° 0 mm 2 mps 757 mmHg 54%
    14:00 +23°C° 0 mm 2 mps 757 mmHg 51%
    15:00 +23°C° 0 mm 2 mps 757 mmHg 56%
    16:00 +21°C° 0 mm 2 mps 757 mmHg 61%
    17:00 +22°C° 0 mm 1 mps 756 mmHg 65%
    18:00 +20°C° 0 mm 1 mps 756 mmHg 71%
    19:00 +18°C° 0 mm 1 mps 756 mmHg 77%
    20:00 +16°C° 0 mm 1 mps 756 mmHg 83%
    21:00 +15°C° 0 mm 2 mps 756 mmHg 86%
    22:00 +14°C° 0 mm 2 mps 756 mmHg 88%
    23:00 +14°C° 0 mm 2 mps 756 mmHg 91%

    Tomorrow, 24 August, Saturday

    Time Temperature Precipitation Wind Pressure Humidity
    00:00 +14°C° 0 mm 2 mps 756 mmHg 91%
    01:00 +13°C° 0 mm 2 mps 756 mmHg 92%
    02:00 +13°C° 0 mm 2 mps 756 mmHg 93%
    03:00 +13°C° 0 mm 2 mps 755 mmHg 93%
    04:00 +13°C° 0 mm 2 mps 755 mmHg 92%
    05:00 +13°C° 0 mm 2 mps 755 mmHg 92%
    06:00 +13°C° 0 mm 3 mps 755 mmHg 86%
    07:00 +16°C° 0 mm 3 mps 755 mmHg 79%
    08:00 +18°C° 0 mm 3 mps 754 mmHg 73%
    09:00 +19°C° 0 mm 4 mps 754 mmHg 68%
    10:00 +20°C° 0 mm 4 mps 754 mmHg 63%
    11:00 +22°C° 0 mm 4 mps 754 mmHg 58%
    12:00 +22°C° 0 mm 4 mps 754 mmHg 58%
    13:00 +23°C° 0 mm 4 mps 754 mmHg 58%
    14:00 +23°C° 0 mm 4 mps 754 mmHg 58%
    15:00 +24°C° 0.1 mm 3 mps 753 mmHg 64%
    16:00 +22°C° 0.1 mm 3 mps 753 mmHg 70%
    17:00 +21°C° 0.1 mm 2 mps 753 mmHg 76%
    18:00 +20°C° 0.2 mm 2 mps 753 mmHg 82%
    19:00 +18°C° 0.2 mm 2 mps 754 mmHg 87%
    20:00 +18°C° 0.2 mm 1 mps 754 mmHg 93%
    21:00 +16°C° 0 mm 1 mps 754 mmHg 94%
    22:00 +16°C° 0 mm 1 mps 754 mmHg 94%
    23:00 +15°C° 0 mm 1 mps 754 mmHg 95%

    Day after tomorrow, 25 August, Sunday

    Time Temperature Precipitation Wind Pressure Humidity
    00:00 +14°C° 0 mm 1 mps 754 mmHg 96%
    01:00 +14°C° 0 mm 1 mps 755 mmHg 96%
    02:00 +13°C° 0 mm 1 mps 755 mmHg 96%
    03:00 +13°C° 0 mm 1 mps 755 mmHg 96%
    04:00 +12°C° 0 mm 1 mps 755 mmHg 96%
    05:00 +12°C° 0 mm 1 mps 755 mmHg 96%
    06:00 +13°C° 0 mm 1 mps 755 mmHg 94%
    07:00 +14°C° 0 mm 1 mps 756 mmHg 91%
    08:00 +15°C° 0 mm 1 mps 756 mmHg 88%
    09:00 +16°C° 0 mm 1 mps 756 mmHg 79%
    10:00 +18°C° 0 mm 2 mps 756 mmHg 70%
    11:00 +19°C° 0 mm 2 mps 756 mmHg 61%
    12:00 +21°C° 0 mm 1 mps 756 mmHg 59%
    13:00 +22°C° 0 mm 1 mps 756 mmHg 56%
    14:00 +23°C° 0 mm 1 mps 756 mmHg 54%
    15:00 +22°C° 0 mm 1 mps 756 mmHg 57%
    16:00 +22°C° 0 mm 1 mps 756 mmHg 61%
    17:00 +22°C° 0 mm 1 mps 756 mmHg 64%
    18:00 +20°C° 0 mm 1 mps 756 mmHg 71%
    19:00 +18°C° 0 mm 1 mps 756 mmHg 77%
    20:00 +14°C° 0 mm 1 mps 756 mmHg 84%
    21:00 +13°C° 0 mm 0 mps 756 mmHg 85%
    22:00 +12°C° 0 mm 0 mps 756 mmHg 87%
    23:00 +12°C° 0 mm 0 mps 756 mmHg 89%

    26 August, Monday

    Time Temperature Precipitation Wind Pressure Humidity
    00:00 +12°C° 0 mm 0 mps 756 mmHg 90%
    01:00 +11°C° 0 mm 0 mps 756 mmHg 91%
    02:00 +11°C° 0 mm 0 mps 756 mmHg 92%
    03:00 +11°C° 0 mm 0 mps 756 mmHg 93%
    04:00 +10°C° 0 mm 0 mps 756 mmHg 93%
    05:00 +10°C° 0 mm 0 mps 756 mmHg 94%
    06:00 +12°C° 0 mm 0 mps 756 mmHg 87%
    07:00 +15°C° 0 mm 1 mps 756 mmHg 80%
    08:00 +18°C° 0 mm 1 mps 756 mmHg 73%
    09:00 +20°C° 0 mm 1 mps 756 mmHg 67%
    10:00 +22°C° 0 mm 1 mps 756 mmHg 61%
    11:00 +23°C° 0 mm 1 mps 756 mmHg 55%
    12:00 +24°C° 0 mm 1 mps 756 mmHg 53%
    13:00 +24°C° 0 mm 1 mps 755 mmHg 51%
    14:00 +25°C° 0 mm 1 mps 755 mmHg 49%
    15:00 +24°C° 0 mm 1 mps 755 mmHg 55%
    16:00 +24°C° 0 mm 1 mps 754 mmHg 61%
    17:00 +23°C° 0 mm 1 mps 754 mmHg 67%
    18:00 +21°C° 0 mm 1 mps 754 mmHg 73%
    19:00 +19°C° 0 mm 1 mps 754 mmHg 80%
    20:00 +16°C° 0 mm 1 mps 754 mmHg 86%
    21:00 +16°C° 0 mm 1 mps 754 mmHg 87%
    22:00 +16°C° 0 mm 1 mps 754 mmHg 87%
    23:00 +16°C° 0 mm 1 mps 754 mmHg 88%

    27 August, Tuesday

    Time Temperature Precipitation Wind Pressure Humidity
    00:00 +15°C° 0 mm 1 mps 754 mmHg 89%
    01:00 +15°C° 0 mm 2 mps 753 mmHg 89%
    02:00 +15°C° 0 mm 2 mps 753 mmHg 90%
    03:00 +15°C° 0 mm 2 mps 753 mmHg 92%
    04:00 +14°C° 0 mm 2 mps 753 mmHg 95%
    05:00 +14°C° 0 mm 2 mps 753 mmHg 97%
    06:00 +15°C° 0 mm 2 mps 753 mmHg 91%
    07:00 +17°C° 0 mm 2 mps 753 mmHg 85%
    08:00 +18°C° 0 mm 2 mps 753 mmHg 80%
    09:00 +19°C° 0 mm 2 mps 753 mmHg 74%
    10:00 +21°C° 0 mm 3 mps 753 mmHg 68%
    11:00 +22°C° 0 mm 3 mps 753 mmHg 62%
    12:00 +22°C° 0 mm 3 mps 753 mmHg 61%
    13:00 +24°C° 0 mm 3 mps 753 mmHg 60%
    14:00 +25°C° 0 mm 3 mps 753 mmHg 59%
    15:00 +24°C° 0 mm 3 mps 753 mmHg 62%
    16:00 +23°C° 0 mm 2 mps 753 mmHg 65%
    17:00 +23°C° 0 mm 2 mps 753 mmHg 68%
    18:00 +20°C° 0 mm 2 mps 754 mmHg 75%
    19:00 +18°C° 0 mm 2 mps 754 mmHg 82%
    20:00 +16°C° 0 mm 2 mps 754 mmHg 89%
    21:00 +15°C° 0 mm 2 mps 754 mmHg 91%
    22:00 +15°C° 0 mm 1 mps 754 mmHg 92%
    23:00 +14°C° 0 mm 1 mps 755 mmHg 94%

    28 August, Wednesday

    Time Temperature Precipitation Wind Pressure Humidity
    00:00 +13°C° 0 mm 1 mps 755 mmHg 95%
    01:00 +13°C° 0 mm 1 mps 755 mmHg 95%
    02:00 +12°C° 0 mm 1 mps 755 mmHg 96%
    03:00 +12°C° 0 mm 1 mps 756 mmHg 96%
    04:00 +12°C° 0 mm 1 mps 756 mmHg 96%
    05:00 +11°C° 0 mm 1 mps 756 mmHg 96%
    06:00 +13°C° 0 mm 1 mps 756 mmHg 89%
    07:00 +14°C° 0 mm 1 mps 756 mmHg 83%
    08:00 +15°C° 0 mm 1 mps 756 mmHg 76%
    09:00 +17°C° 0 mm 2 mps 756 mmHg 67%
    10:00 +18°C° 0 mm 2 mps 756 mmHg 58%
    11:00 +20°C° 0 mm 2 mps 757 mmHg 50%
    12:00 +20°C° 0 mm 2 mps 756 mmHg 48%
    13:00 +21°C° 0 mm 2 mps 756 mmHg 46%
    14:00 +21°C° 0 mm 2 mps 756 mmHg 44%
    15:00 +21°C° 0 mm 2 mps 756 mmHg 49%
    16:00 +20°C° 0 mm 2 mps 756 mmHg 54%
    17:00 +20°C° 0 mm 1 mps 756 mmHg 59%
    18:00 +17°C° 0 mm 2 mps 756 mmHg 63%
    19:00 +15°C° 0 mm 2 mps 756 mmHg 66%
    20:00 +13°C° 0 mm 2 mps 756 mmHg 70%
    21:00 +13°C° 0 mm 2 mps 756 mmHg 71%
    22:00 +12°C° 0 mm 2 mps 756 mmHg 72%
    23:00 +10°C° 0 mm 2 mps 757 mmHg 73%
    Show more